Flight Track Log - Related Links

Times and Time Zones

All times are in EDT time to prevent confusion due to time zone crossing. See the N93XP flight status page for this flight to view local times or setup timezone preferences in your user account.

Time Position Orientation Groundspeed Altitude Reporting Facility
EDT Latitude Longitude Course Direction KTS MPH feet Rate Location/Type
Wed 06:30:47 PM 39.7631 -85.1664 320° Northwest 203 234 3,300  Level Indianapolis Center
Wed 06:31:29 PM 39.7975 -85.2042 320° Northwest 238 274 4,600 2,351 Climbing Indianapolis Center
Wed 06:32:24 PM 39.8450 -85.2628 317° Northwest 270 311 7,100 2,484 Climbing Indianapolis Center
Wed 06:33:37 PM 39.9117 -85.3322 321° Northwest 259 298 9,900 2,622 Climbing Indianapolis Center
Wed 06:34:39 PM 39.9642 -85.3994 316° Northwest 270 311 13,000 2,613 Climbing Indianapolis Center
Wed 06:35:41 PM 40.0017 -85.4906 298° West 287 330 15,300 2,129 Climbing Indianapolis Center
Wed 06:36:43 PM 40.0436 -85.5833 301° West 296 341 17,400 1,935 Climbing Indianapolis Center
Wed 06:37:45 PM 40.0886 -85.6875 299° West 323 372 19,300 1,258 Climbing Indianapolis Center
Wed 06:38:47 PM 40.1856 -85.7725 326° Northwest 374 430 20,000 339 Climbing Indianapolis Center
Wed 06:39:49 PM 40.2950 -85.7892 353° North 398 458 20,000  Level Indianapolis Center
Wed 06:40:51 PM 40.4058 -85.8050 354° North 402 463 20,000  Level Indianapolis Center
Wed 06:41:53 PM 40.5133 -85.8206 354° North 394 453 20,000  Level Indianapolis Center
Wed 06:42:55 PM 40.6222 -85.8347 354° North 394 453 20,000  Level Indianapolis Center
Wed 06:43:57 PM 40.7519 -85.8533 354° North 394 453 20,000  Level Indianapolis Center
Wed 06:44:59 PM 40.8597 -85.8683 354° North 391 450 20,000  Level Indianapolis Center
Wed 06:46:01 PM 40.9686 -85.8853 353° North 394 453 20,000  Level Indianapolis Center
Wed 06:47:03 PM 41.0775 -85.9011 354° North 394 453 20,000  Level Indianapolis Center
Wed 06:48:05 PM 41.1861 -85.9158 354° North 393 452 20,000  Level Indianapolis Center
Wed 06:49:07 PM 41.2956 -85.9325 353° North 395 455 20,000  Level Indianapolis Center
Wed 06:50:10 PM 41.4261 -85.9519 354° North 395 455 20,000  Level Indianapolis Center
Wed 06:51:12 PM 41.5361 -85.9664 354° North 396 456 20,000  Level Indianapolis Center
Wed 06:52:20 PM 41.6603 -85.9867 353° North 397 457 20,000  Level Chicago Center
Wed 06:53:22 PM 41.7700 -86.0017 354° North 395 455 20,000  Level Chicago Center
Wed 06:54:24 PM 41.8797 -86.0186 353° North 396 456 20,000  Level Chicago Center
Wed 06:55:26 PM 41.9903 -86.0358 353° North 397 457 20,000  Level Chicago Center
Wed 06:56:28 PM 42.0994 -86.0508 354° North 395 455 20,000  Level Chicago Center
Wed 06:57:30 PM 42.2322 -86.0686 354° North 398 458 20,000  Level Chicago Center
Wed 06:58:32 PM 42.3314 -86.0964 348° North 400 460 20,000  Level Chicago Center
Wed 06:59:35 PM 42.4150 -86.1897 321° Northwest 398 458 20,000 -480 Level Chicago Center
Wed 07:00:37 PM 42.4519 -86.3350 289° West 416 479 19,000 -1,597 Descending Chicago Center
Wed 07:01:39 PM 42.4436 -86.5061 266° West 380 437 16,700 -2,226 Descending Chicago Center
Wed 07:02:41 PM 42.4372 -86.6361 266° West 351 404 14,400 -2,226 Descending Chicago Center
Wed 07:03:43 PM 42.4317 -86.7692 267° West 352 405 12,100 -2,129 Descending Chicago Center
Wed 07:04:45 PM 42.4250 -86.8911 266° West 329 379 10,000 -1,645 Descending Chicago Center
Wed 07:05:47 PM 42.4181 -86.9986 265° West 293 337 8,700 -1,839 Descending Chicago Center
Wed 07:06:49 PM 42.4100 -87.0994 264° West 274 315 6,200 -2,419 Descending Chicago Center
Wed 07:07:51 PM 42.4050 -87.2178 267° West 264 304 3,700 -1,597 Descending Chicago Center
Wed 07:08:53 PM 42.4000 -87.3094 266° West 263 303 2,900 -384 Descending Chicago Center
Wed 07:09:56 PM 42.3814 -87.4097 256° West 262 302 2,900 -192 Level Chicago Center
Wed 07:10:58 PM 42.3550 -87.5078 250° West 257 296 2,500 -290 Descending Chicago Center
Wed 07:12:00 PM 42.3436 -87.6047 261° West 251 289 2,300 -97 Descending Chicago Center
Wed 07:13:02 PM 42.3344 -87.6925 262° West 251 289 2,300  Level Chicago Center
Wed 07:14:04 PM 42.3047 -87.7789 245° Southwest 256 295 2,300  Level Chicago Center
Wed 07:15:06 PM 42.2764 -87.8639 246° West 253 291 2,300 48 Level Chicago Center
Wed 07:16:08 PM 42.2475 -87.9433 244° Southwest 222 255 2,400 -97 Climbing Chicago Center
Wed 07:17:10 PM 42.2067 -87.9556 193° South 179 206 2,100 -290 Descending Chicago Center
Wed 07:18:12 PM 42.1681 -87.9347 158° South 156 180 1,800 -290 Descending Chicago Center
Wed 07:20:00 PM 42.1143 -87.9015 169° South  Level Estimated
Wed 07:27:00 PM 42.1143 -87.9015 169° South  Level Estimated

Login

Don't have an account? Register now (free) for customized features, flight alerts, and more!